Location: Goettingen
(51.5300°N, 9.9433°E)
Time: 22:43:34
(UTC+02:00)

ISS - Pass Details

Date: 20 September 2019
Orbit: 411 x 421 km, 51.6° (Epoch: 19 September)

Event Time Altitude Azimuth Distance (km) Brightness Sun altitude
Rises 21:22:43 0° 227° (SW) 2,336 0.3 -18.6°
Reaches altitude 10° 21:24:54 10° 217° (SW) 1,476 -0.9 -18.9°
Enters shadow 21:26:22 21° 201° (SSW) 975 -2.0 -19.1°
